This is the latest recevied weather packets stored in our database for station/object KD0SBN-3. If no packets are shown the sender has not sent any weather packets the latest 10 day(s).
| Time | Temp. | Humidity | Pressure | Rain* | Wind** | Luminosity | Snow |
|---|---|---|---|---|---|---|---|
| 1777567658 | 0° C | 92% | 1025.1 hPa | 0 mm | - | 79 W/m² | - |
| 1777567356 | 0° C | 92% | 1025.3 hPa | 0 mm | - | 82 W/m² | - |
| 1777567054 | 0° C | 91% | 1025 hPa | 0 mm | - | 94 W/m² | - |
| 1777566752 | 0.56° C | 90% | 1025.1 hPa | 0 mm | - | 66 W/m² | - |
| 1777566449 | 0.56° C | 90% | 1025 hPa | 0 mm | - | 81 W/m² | - |
| 1777566147 | 0.56° C | 90% | 1025 hPa | 0 mm | - | 76 W/m² | - |
| 1777565847 | 0.56° C | 90% | 1025.1 hPa | 0 mm | - | 76 W/m² | - |
| 1777565544 | 0.56° C | 90% | 1024.7 hPa | 0 mm | - | 97 W/m² | - |
| 1777565241 | 0.56° C | 91% | 1025 hPa | 0 mm | - | 82 W/m² | - |
| 1777564937 | 0.56° C | 94% | 1024.9 hPa | 0 mm | - | 104 W/m² | - |
| 1777564632 | 0° C | 95% | 1024.9 hPa | 0 mm | - | 122 W/m² | - |
| 1777564328 | 0° C | 96% | 1025 hPa | 0 mm | - | 89 W/m² | - |
| 1777564024 | 0° C | 96% | 1024.9 hPa | 0 mm | - | 86 W/m² | - |
| 1777563720 | -0.56° C | 96% | 1025.1 hPa | 0 mm | - | 85 W/m² | - |
| 1777563416 | 0° C | 96% | 1025.1 hPa | 0 mm | - | 95 W/m² | - |
| 1777563111 | -0.56° C | 97% | 1025.1 hPa | 0 mm | - | 94 W/m² | - |
| 1777562807 | 0° C | 97% | 1025.1 hPa | 0 mm | - | 131 W/m² | - |
| 1777562505 | -0.56° C | 97% | 1025.1 hPa | 0 mm | - | 125 W/m² | - |
| 1777562202 | -0.56° C | 97% | 1025.1 hPa | 0 mm | - | 85 W/m² | - |
| 1777561900 | -0.56° C | 97% | 1025.4 hPa | 0 mm | - | 62 W/m² | - |
| 1777561597 | -0.56° C | 97% | 1025 hPa | 0 mm | - | 81 W/m² | - |
| 1777561293 | -0.56° C | 97% | 1025.4 hPa | 0 mm | - | 68 W/m² | - |
| 1777560992 | 0° C | 97% | 1025.1 hPa | 0 mm | - | 73 W/m² | - |
| 1777560688 | 0° C | 97% | 1025.3 hPa | 0 mm | - | 92 W/m² | - |
| 1777560386 | 0° C | 97% | 1025.4 hPa | 0 mm | - | 79 W/m² | - |
* Rain latest hour (hover to see other rain measurements)
** Current wind speed in m/s (hover to see current wind gust speed)